Back to catalog

SL-8 DEB

AliveLEO
NORAD 19451·DEBRIS·🇷🇺 Russia

Launched Mar 11, 1988 from Plesetsk Cosmodrome

Loading…

Next Passes (next 24 hours)

TLE

FreshSource: Space-Track

Epoch: Sep 14, 2026, 13:13 UTC

1 19451U 88016K   26257.55074809  .00000137  00000-0  13075-2 0  9992
2 19451  74.0045 284.8477 0128425 261.2367 255.5683 12.27532648712780

Track SL-8 DEB in real time with AllMySat

Download on the App Store